Miscellaneous Local Product
Issued by NWS North Platte, NE

Home | Current Version | Previous Version | Graphics & Text | Print | Product List | Glossary On
Versions: 1 2 3 4 5 6 7 8 9 10 11 12 13 14 15 16 17 18 19 20 21 22 23 24 25 26 27 28 29 30 31 32 33 34 35 36 37 38 39 40 41 42 43 44 45 46 47 48 49 50
079
AXUS43 KLBF 060110
MISLBF


WESTERN AND NORTH CENTRAL NEBRASKA HOURLY WEATHER ROUNDUP
NATIONAL WEATHER SERVICE NORTH PLATTE NE
700 PM CST FRI FEB 05 2016

NOTE: "FAIR" INDICATES FEW OR NO CLOUDS BELOW 12,000 FEET WITH NO
SIGNIFICANT WEATHER AND/OR OBSTRUCTIONS TO VISIBILITY.

NOTE: STATIONS NOT REPORTING VARIABLES SUCH AS SKY/WEATHER OR
PRESSURE ARE PROVIDED BY THE NEBRASKA DEPARTMENT OF
ROADS...RAWS...AND APRS NETWORKS...AND ARE NOT UNDER
NATIONAL WEATHER SERVICE QUALITY CONTROL.

...OBSERVATIONS IN AND NEAR THE EASTERN PANHANDLE OF NEBRASKA...

CITY           SKY/WX    TMP DP  RH WIND       PRES   REMARKS
PINE RIDGE     CLEAR     29  22  75 CALM      30.21S
CHADRON        CLEAR     30  21  69 W15       30.23S WCI  19
ALLIANCE       CLEAR     25  17  72 NW14      30.23R WCI  13
SIDNEY         CLEAR     22  15  75 W13       30.26R WCI  10
CRESCENT LAKE    N/A     28  20  72 NW9         N/A  WCI  19
BIG SPRINGS      N/A     24  19  82 W8          N/A  WCI  15
$$

...OBSERVATIONS IN NORTH CENTRAL NEBRASKA...

CITY           SKY/WX    TMP DP  RH WIND       PRES   REMARKS
VALENTINE      PTCLDY    25  21  85 W5        30.22S WCI  19
THEDFORD       CLEAR     29  24  84 W5        30.23S WCI  23
AINSWORTH      CLEAR     29  25  82 CALM      30.23R
O`NEILL        CLOUDY    35  30  83 NW14G21   30.23R WCI  25
ORD            CLOUDY    35  27  72 NW12      30.22R WCI  27
BROKEN BOW     CLOUDY    33  25  72 NW18      30.23R WCI  22
VALENTINE NWR    N/A     28  21  74 NW6G15      N/A  WCI  22
BUTTE            N/A     31  29  90 W5          N/A  WCI  26
HALSEY           N/A     30  23  75 NW3G15      N/A
CHAMBERS         N/A     34  29  83 N3G12       N/A
EWING            N/A     34  31  90 NW6         N/A  WCI  29
$$

...OBSERVATIONS IN SOUTHWEST NEBRASKA AND FAR NORTHEAST COLORADO...

CITY           SKY/WX    TMP DP  RH WIND       PRES   REMARKS
WRAY           FAIR      28  20  72 NW12      30.28R WCI  17
HOLYOKE        FAIR      32  21  64 NW13G20   30.27S WCI  22
IMPERIAL       CLEAR     28  20  71 NW12      30.26R WCI  18
OGALLALA       CLEAR     27  19  72 NW9       30.25S WCI  18
NORTH PLATTE   CLEAR     31  22  69 N7        30.25R WCI  24
MCCOOK         CLEAR     31  23  72 W10       30.27R WCI  22
LEXINGTON      PTCLDY    33  25  70 NW10      30.24S WCI  25
PAXTON           N/A     31  24  75 CALM        N/A
STAPLETON        N/A     28  23  81 CALM        N/A
GOTHENBURG       N/A     33  25  72 NW5         N/A  WCI  28
CALLAWAY         N/A     30  24  79 N7          N/A  WCI  23
$$

...OBSERVATIONS IN CENTRAL LINCOLN COUNTY AREA...

CITY           SKY/WX    TMP DP  RH WIND       PRES   REMARKS
N.P. AIRPORT   CLEAR     31  22  69 N7        30.25R WCI  24
N.P. DOWNTOWN    N/A     32  25  76 CALM        N/A
N.P. SOUTHEAST   N/A     32  24  73 N3          N/A
N.P. HILLCREST   N/A     31  25  79 N5          N/A  WCI  26
$$

...SOME OBSERVATIONS FROM AROUND THE REGION...

CITY           SKY/WX    TMP DP  RH WIND       PRES   REMARKS
DENVER         CLOUDY    19   8  62 S14       30.27R WCI   6
LARAMIE        CLOUDY    18   4  54 VRB5      30.25R WCI  11
CHEYENNE       CLOUDY    23   9  55 W7        30.23R WCI  15
SCOTTSBLUFF    CLEAR     28  16  60 W12       30.27R WCI  18
RAPID CITY     CLEAR     30  20  66 W7        30.18R WCI  23
BISMARCK       CLEAR     34  23  64 SW5       30.10F WCI  30
PIERRE         CLEAR     32  25  75 SW8       30.18S WCI  25
WINNER         FAIR      31  25  78 W7        30.22R WCI  24
SIOUX FALLS    CLOUDY    29  26  89 NW6       30.20R WCI  23
OMAHA          CLOUDY    31  28  89 S8        30.25S FOG     WCI  23
GRAND ISLAND   CLOUDY    34  29  82 NW13      30.24R WCI  25
KANSAS CITY    CLOUDY    36  23  59 CALM      30.28R
WICHITA        PTCLDY    41  24  51 N8        30.25R
OKLAHOMA CITY  CLOUDY    50  26  39 SW12      30.24R
LIBERAL        CLEAR     34  18  51 N9        30.31R WCI  26
HAYS           CLEAR     34  19  55 NW10      30.27S WCI  26
GOODLAND       CLEAR     26  19  74 NW10      30.27S WCI  16
$$




USA.gov is the U.S. government's official web portal to all federal, state and local government web resources and services.